OPS 4682 DEB, 18784

Orbit data source: Space-Track

OPS 4682 DEB, 18784 is space debris in LEO originally from a launch on Sat, 03 Apr 1965 UTC launched from the Air Force Western Test Range (AFWTR). Debris objects in space refer to the collection of defunct objects orbiting the Earth. Examples of debris include non-operational satellites, rocket bodies, and fragments generated from explosions, collisions, or faulty payload assembly.

Loading next visibility...
Identifier
18784, 1965-027AL
Orbit
LEO
Country
Flag of USUS
Related business
Manufacturer
Unknown
Mission
Spacecraft
Bus & Motor
Unknown
Mass
Unknown
Launch date (UTC)
1965-04-03 (61 years ago)
Launch vehicle
Unknown
Launch site
Air Force Western Test Range (AFWTR)
Object type
Payload
Rocket body
Debris
Shape & HBR
Unknown shape, 0.1 m
Radar Cross Section
Small (<0.1 m²)

Expand to show TLE details & history
Last TLE update: 11 hours ago

TLE from 11 hours ago
0 OPS 4682 DEB
1 18784U 65027AL  26104.17141435  .00000661  00000-0  22576-2 0  9994
2 18784  90.2536   2.9255 0040369 288.7649 225.6897 12.97107432794087
Epoch: 2026-04-14T04:06Z
TLE epoch observation values (Epoch: 2026-04-14T04:06:50.199Z)
Latitude
25.90391°
Longitude
-81.01261°
Altitude
1,298.226 km
Speed
7.199 km/s
True Right ascension
12h 12m 11s
True Declination
25° 46' 43"
Sunlit
Object was in full shadow at epoch
Visualization orbit readout
Latitude
Unknown
Longitude
Unknown
Altitude
Unknown
Speed
Unknown
Apparent Right ascension
Unknown
Apparent Declination
Unknown
Sunlit
N/A
Visualization observer readout
Local Sidereal Time
21:30:43
Azimuth
Unknown
Elevation
Unknown
Doppler factor
Unknown
Orbital elements
Apogee altitude
1,301.449 km
Perigee altitude
1,239.695 km
Semi-major axis
7,648.709 km
Eccentricity
0.00404
Inclination
90.2536°
RAAN
2.9255°
Arg. of periapsis
288.7649°
True anomaly
225.35985°
Mean anomaly
225.6897°
Eccentric anomaly
225.52466°
Mean motion
3.2446 °/min
Orbital period
110.95 mins
BSTAR
0.0022576
Loading maneuver chart data...
Computing Atmospheric mass density...
Loading historical data...
Loading historical data...
Loading historical data...
Loading historical data...
Loading historical data...
Loading historical data...
Loading historical data...

Documentation

Showing up to 5 results
|